STARLINK B

Last updated on Wed Jul 02 2025 00:02:08 GMT+0000 (Coordinated Universal Time)

1 64595U 25137B 25182.75001157 -.00804521 21126-3 -21048-2 0 9995 2 64595 53.1565 79.6829 0000944 116.3703 153.3395 15.94181260 2058

Satellite not in orbit